BAW2245 EGLL-LFMN

Flight info

Callsign BAW2245
Flight time 1h 40m
Altitude 23000
Route MODMI M185 MID L612 BOGNA/N0480F330 UL612 VEULE DCT KOTAP DCT KETEX DCT KOTIS DCT KUKOR DCT UTUVA DCT LERGA DCT LIQID DCT LATAM DCT TUNUR DCT NISAR
Aircraft B77L/H-SDE1E2E3FGHIJ2J3J4J5M1RWXY/LB1D1

Departure

Time 2026-05-01 13:40
Airport London Heathrow Airport (EGLL)

Arrival

Time 2026-05-01 15:21
Airport Nice-Côte d'Azur Airport (LFMN)
Time Latitude Longitude Altitude Speed Heading
2026-05-01 13:23 51.47223 -0.47506 91 ft 0 kts 270°
2026-05-01 13:28 51.47223 -0.47491 94 ft 1 kts 270°
2026-05-01 13:28 51.47223 -0.47483 94 ft 1 kts 270°
2026-05-01 13:29 51.47223 -0.47461 92 ft 1 kts 270°
2026-05-01 13:29 51.47223 -0.47436 92 ft 1 kts 270°
2026-05-01 13:30 51.47223 -0.47395 92 ft 1 kts 269°
2026-05-01 13:31 51.47225 -0.47374 92 ft 1 kts 250°
2026-05-01 13:31 51.47233 -0.47357 93 ft 0 kts 178°
2026-05-01 13:34 51.47116 -0.47355 94 ft 12 kts 179°
2026-05-01 13:34 51.46953 -0.47354 94 ft 12 kts 179°
2026-05-01 13:35 51.46791 -0.47354 91 ft 12 kts 187°
2026-05-01 13:35 51.46746 -0.47451 93 ft 12 kts 263°
2026-05-01 13:35 51.46744 -0.47716 93 ft 12 kts 269°
2026-05-01 13:36 51.46744 -0.47847 91 ft 12 kts 270°
2026-05-01 13:36 51.46743 -0.47980 93 ft 12 kts 270°
2026-05-01 13:36 51.46743 -0.48134 91 ft 5 kts 270°
2026-05-01 13:37 51.46742 -0.48198 91 ft 8 kts 270°
2026-05-01 13:37 51.46742 -0.48331 91 ft 15 kts 270°
2026-05-01 13:37 51.46742 -0.48497 91 ft 15 kts 269°
2026-05-01 13:37 51.46741 -0.48663 93 ft 13 kts 269°
2026-05-01 13:38 51.46615 -0.48764 96 ft 10 kts 198°
2026-05-01 13:38 51.46608 -0.48768 95 ft 1 kts 198°
2026-05-01 13:38 51.46569 -0.48786 93 ft 11 kts 192°
2026-05-01 13:39 51.46486 -0.48720 96 ft 16 kts 114°
2026-05-01 13:39 51.46478 -0.48543 92 ft 18 kts 89°
2026-05-01 13:39 51.46479 -0.48158 92 ft 61 kts 89°
2026-05-01 13:39 51.46482 -0.47077 94 ft 131 kts 90°
2026-05-01 13:40 51.46488 -0.45279 120 ft 187 kts 90°
2026-05-01 13:40 51.46499 -0.43113 554 ft 197 kts 91°
2026-05-01 13:40 51.46333 -0.40937 1005 ft 199 kts 120°
2026-05-01 13:40 51.45524 -0.39355 1521 ft 194 kts 138°
2026-05-01 13:41 51.44550 -0.37835 2109 ft 194 kts 147°
2026-05-01 13:41 51.43303 -0.36982 2578 ft 200 kts 163°
2026-05-01 13:41 51.41989 -0.36216 3111 ft 198 kts 163°
2026-05-01 13:41 51.40668 -0.35608 3567 ft 198 kts 178°
2026-05-01 13:42 51.39332 -0.35960 4123 ft 199 kts 201°
2026-05-01 13:42 51.38071 -0.36904 4640 ft 203 kts 206°
2026-05-01 13:42 51.36776 -0.37951 5157 ft 215 kts 206°
2026-05-01 13:42 51.35394 -0.39065 5578 ft 229 kts 205°
2026-05-01 13:43 51.33968 -0.40203 5885 ft 227 kts 205°
2026-05-01 13:43 51.32534 -0.41347 6347 ft 234 kts 205°
2026-05-01 13:43 51.31055 -0.42516 6727 ft 242 kts 205°
2026-05-01 13:43 51.29493 -0.43741 7178 ft 258 kts 205°
2026-05-01 13:44 51.27856 -0.45024 7598 ft 264 kts 205°
2026-05-01 13:44 51.26225 -0.46324 7996 ft 266 kts 205°
2026-05-01 13:44 51.24542 -0.47677 8403 ft 277 kts 205°
2026-05-01 13:44 51.22763 -0.49097 8872 ft 295 kts 205°
2026-05-01 13:45 51.20862 -0.50576 9396 ft 312 kts 204°
2026-05-01 13:45 51.18861 -0.52120 9935 ft 327 kts 205°
2026-05-01 13:45 51.16773 -0.53730 10425 ft 343 kts 205°
2026-05-01 13:45 51.14589 -0.55417 11002 ft 351 kts 205°
2026-05-01 13:46 51.12367 -0.57133 11650 ft 358 kts 204°
2026-05-01 13:46 51.10121 -0.58864 12337 ft 360 kts 204°
2026-05-01 13:46 51.07813 -0.60380 13022 ft 358 kts 192°
2026-05-01 13:46 51.05323 -0.60599 13773 ft 363 kts 173°
2026-05-01 13:47 51.02857 -0.59626 14492 ft 369 kts 159°
2026-05-01 13:47 51.00592 -0.57656 15177 ft 373 kts 148°
2026-05-01 13:47 50.98427 -0.55327 15886 ft 377 kts 147°
2026-05-01 13:47 50.96259 -0.52935 16598 ft 382 kts 147°
2026-05-01 13:48 50.94085 -0.50543 17208 ft 387 kts 147°
2026-05-01 13:48 50.91854 -0.48117 17196 ft 390 kts 147°
2026-05-01 13:48 50.89616 -0.45709 17478 ft 385 kts 148°
2026-05-01 13:48 50.87377 -0.43322 18024 ft 392 kts 148°
2026-05-01 13:49 50.85087 -0.40895 18556 ft 399 kts 148°
2026-05-01 13:49 50.82769 -0.38443 19029 ft 405 kts 148°
2026-05-01 13:49 50.80406 -0.35949 19519 ft 410 kts 148°
2026-05-01 13:49 50.78029 -0.33442 20010 ft 412 kts 148°
2026-05-01 13:50 50.75618 -0.30900 20505 ft 417 kts 148°
2026-05-01 13:50 50.73190 -0.28345 21008 ft 420 kts 148°
2026-05-01 13:50 50.70776 -0.25809 21509 ft 424 kts 148°
2026-05-01 13:50 50.68305 -0.23215 22045 ft 428 kts 148°
2026-05-01 13:51 50.65811 -0.20601 22570 ft 431 kts 148°
2026-05-01 13:51 50.63307 -0.17979 23100 ft 433 kts 148°
2026-05-01 13:51 50.60772 -0.15329 23222 ft 442 kts 148°
2026-05-01 13:51 50.58201 -0.12642 23215 ft 442 kts 147°
2026-05-01 13:52 50.55640 -0.09968 23207 ft 440 kts 147°
2026-05-01 13:52 50.53089 -0.07308 23203 ft 440 kts 147°
2026-05-01 13:52 50.50571 -0.04685 23212 ft 440 kts 147°
2026-05-01 13:52 50.48015 -0.02028 23211 ft 440 kts 147°
2026-05-01 13:53 50.45465 0.00619 23212 ft 440 kts 147°
2026-05-01 13:53 50.40369 0.05915 23733 ft 436 kts 147°
2026-05-01 13:53 50.37830 0.08551 24145 ft 440 kts 147°
2026-05-01 13:54 50.35253 0.11224 24556 ft 444 kts 147°
2026-05-01 13:54 50.32691 0.13882 24953 ft 448 kts 147°
2026-05-01 13:54 50.30082 0.16588 25361 ft 452 kts 147°
2026-05-01 13:54 50.27455 0.19309 25775 ft 455 kts 147°
2026-05-01 13:55 50.24809 0.22048 26194 ft 457 kts 147°
2026-05-01 13:55 50.22145 0.24801 26620 ft 460 kts 147°
2026-05-01 13:55 50.19476 0.27553 27046 ft 461 kts 147°
2026-05-01 13:55 50.16787 0.30316 27484 ft 462 kts 147°
2026-05-01 13:56 50.14095 0.33077 27931 ft 463 kts 147°
2026-05-01 13:56 50.11400 0.35837 28390 ft 464 kts 147°
2026-05-01 13:56 50.08700 0.38598 28851 ft 464 kts 147°
2026-05-01 13:56 50.05993 0.41366 29259 ft 466 kts 147°
2026-05-01 13:57 50.01405 0.46047 29218 ft 480 kts 147°
2026-05-01 13:57 49.94857 0.52712 29220 ft 486 kts 147°
2026-05-01 13:58 49.89168 0.58487 29212 ft 489 kts 147°
2026-05-01 13:58 49.83512 0.64266 29206 ft 489 kts 146°
2026-05-01 13:59 49.77981 0.70373 29206 ft 489 kts 144°
2026-05-01 13:59 49.72473 0.76571 29203 ft 488 kts 144°
2026-05-01 14:00 49.66970 0.82688 29202 ft 486 kts 144°
2026-05-01 14:00 49.61490 0.88715 29205 ft 486 kts 144°
2026-05-01 14:01 49.55981 0.94743 29206 ft 485 kts 144°
2026-05-01 14:01 49.50475 1.00753 29209 ft 484 kts 145°
2026-05-01 14:02 49.44988 1.06746 29204 ft 483 kts 144°
2026-05-01 14:02 49.39531 1.12679 29215 ft 482 kts 145°
2026-05-01 14:03 49.34035 1.18607 29218 ft 482 kts 145°
2026-05-01 14:03 49.28553 1.24520 29209 ft 481 kts 145°
2026-05-01 14:04 49.23078 1.30419 29205 ft 481 kts 145°
2026-05-01 14:04 49.18534 1.35302 29208 ft 480 kts 145°
2026-05-01 14:05 49.12169 1.42121 29213 ft 480 kts 145°
2026-05-01 14:05 49.06702 1.47961 29199 ft 480 kts 145°
2026-05-01 14:06 49.01224 1.53797 29207 ft 479 kts 145°
2026-05-01 14:06 48.95752 1.59610 29207 ft 480 kts 145°
2026-05-01 14:07 48.90298 1.65388 29201 ft 480 kts 145°
2026-05-01 14:08 48.82200 1.73938 29209 ft 480 kts 145°
2026-05-01 14:08 48.76711 1.79714 29207 ft 480 kts 145°
2026-05-01 14:09 48.71249 1.85447 29207 ft 480 kts 145°
2026-05-01 14:09 48.65753 1.91200 29210 ft 479 kts 145°
2026-05-01 14:10 48.60262 1.96931 29209 ft 479 kts 145°
2026-05-01 14:10 48.54761 2.02659 29210 ft 480 kts 146°
2026-05-01 14:11 48.49312 2.08316 29206 ft 480 kts 146°
2026-05-01 14:11 48.41072 2.16845 29204 ft 481 kts 146°
2026-05-01 14:12 48.35552 2.22540 29206 ft 481 kts 146°
2026-05-01 14:12 48.30029 2.28219 29207 ft 481 kts 147°
2026-05-01 14:13 48.25019 2.31815 29204 ft 482 kts 163°
2026-05-01 14:13 48.17411 2.34163 29218 ft 480 kts 164°
2026-05-01 14:14 48.11001 2.37024 29208 ft 481 kts 160°
2026-05-01 14:14 48.04648 2.40267 29209 ft 483 kts 161°
2026-05-01 14:15 47.98303 2.43464 29211 ft 483 kts 161°
2026-05-01 14:15 47.91902 2.46645 29208 ft 484 kts 161°
2026-05-01 14:16 47.85504 2.49806 29202 ft 484 kts 161°
2026-05-01 14:16 47.79096 2.52965 29202 ft 485 kts 161°
2026-05-01 14:17 47.72685 2.56120 29208 ft 486 kts 161°
2026-05-01 14:17 47.66256 2.59275 29200 ft 487 kts 162°
2026-05-01 14:18 47.59840 2.62416 29197 ft 486 kts 162°
2026-05-01 14:18 47.54529 2.65011 29195 ft 475 kts 162°
2026-05-01 14:19 47.47244 2.68560 29203 ft 474 kts 162°
2026-05-01 14:19 47.40963 2.71611 29204 ft 475 kts 162°
2026-05-01 14:20 47.31562 2.76165 29200 ft 477 kts 163°
2026-05-01 14:21 47.26256 2.78729 29202 ft 480 kts 163°
2026-05-01 14:21 47.19934 2.81772 29208 ft 483 kts 164°
2026-05-01 14:22 47.10286 2.86386 29206 ft 488 kts 164°
2026-05-01 14:22 47.03806 2.89476 29209 ft 490 kts 164°
2026-05-01 14:23 46.97312 2.92568 29206 ft 491 kts 165°
2026-05-01 14:23 46.90821 2.95650 29216 ft 499 kts 165°
2026-05-01 14:24 46.84164 2.98801 29211 ft 505 kts 165°
2026-05-01 14:24 46.77460 3.01970 29207 ft 507 kts 165°
2026-05-01 14:25 46.70727 3.05144 29220 ft 509 kts 165°
2026-05-01 14:25 46.64014 3.08302 29196 ft 503 kts 165°
2026-05-01 14:26 46.54085 3.12952 29208 ft 501 kts 165°
2026-05-01 14:27 46.47497 3.16346 29205 ft 503 kts 162°
2026-05-01 14:27 46.40943 3.19974 29204 ft 504 kts 162°
2026-05-01 14:28 46.31120 3.25316 29206 ft 505 kts 163°
2026-05-01 14:28 46.24522 3.28841 29207 ft 505 kts 163°
2026-05-01 14:29 46.17920 3.32356 29210 ft 506 kts 163°
2026-05-01 14:30 46.04700 3.39380 29208 ft 506 kts 162°
2026-05-01 14:31 45.94828 3.44603 29211 ft 506 kts 162°
2026-05-01 14:31 45.88201 3.48098 29215 ft 506 kts 162°
2026-05-01 14:32 45.81533 3.51345 29209 ft 505 kts 166°
2026-05-01 14:32 45.74808 3.54153 29221 ft 505 kts 166°
2026-05-01 14:33 45.68057 3.56962 29215 ft 505 kts 166°
2026-05-01 14:33 45.61314 3.59832 29215 ft 505 kts 166°
2026-05-01 14:34 45.54561 3.62728 29223 ft 505 kts 166°
2026-05-01 14:34 45.47865 3.65591 29222 ft 506 kts 166°
2026-05-01 14:35 45.41107 3.68467 29228 ft 506 kts 166°
2026-05-01 14:35 45.34354 3.71336 29239 ft 505 kts 166°
2026-05-01 14:36 45.27710 3.74501 29232 ft 505 kts 154°
2026-05-01 14:36 45.24837 3.77406 29253 ft 512 kts 137°
2026-05-01 14:36 45.22593 3.81334 29274 ft 517 kts 124°
2026-05-01 14:37 45.18939 3.90108 29263 ft 518 kts 124°
2026-05-01 14:37 45.15015 3.98636 29260 ft 522 kts 124°
2026-05-01 14:38 45.11049 4.07280 29248 ft 524 kts 124°
2026-05-01 14:38 45.07076 4.15925 29248 ft 523 kts 124°
2026-05-01 14:39 45.03088 4.24518 29249 ft 521 kts 127°
2026-05-01 14:39 44.98320 4.32171 29255 ft 517 kts 136°
2026-05-01 14:40 44.93316 4.39481 29258 ft 517 kts 135°
2026-05-01 14:40 44.88429 4.46835 29250 ft 517 kts 134°
2026-05-01 14:41 44.83539 4.54319 29257 ft 518 kts 134°
2026-05-01 14:41 44.78653 4.61787 29251 ft 519 kts 134°
2026-05-01 14:42 44.73745 4.69250 29255 ft 519 kts 134°
2026-05-01 14:42 44.68825 4.76704 29243 ft 520 kts 134°
2026-05-01 14:43 44.63936 4.84093 29249 ft 520 kts 134°
2026-05-01 14:43 44.61521 4.87838 29091 ft 513 kts 133°
2026-05-01 14:43 44.59199 4.91563 28708 ft 501 kts 132°
2026-05-01 14:43 44.56949 4.95210 28496 ft 486 kts 132°
2026-05-01 14:44 44.54758 4.98740 28335 ft 481 kts 133°
2026-05-01 14:44 44.50286 5.06081 28050 ft 508 kts 126°
2026-05-01 14:44 44.48662 5.10511 27889 ft 515 kts 110°
2026-05-01 14:45 44.47848 5.15383 27749 ft 513 kts 97°
2026-05-01 14:45 44.46716 5.25203 27442 ft 508 kts 103°
2026-05-01 14:45 44.45929 5.29975 27376 ft 508 kts 104°
2026-05-01 14:46 44.45084 5.34765 27316 ft 506 kts 105°
2026-05-01 14:46 44.43385 5.44338 27290 ft 507 kts 104°
2026-05-01 14:46 44.42561 5.49102 27284 ft 502 kts 104°
2026-05-01 14:47 44.41755 5.53847 27273 ft 500 kts 104°
2026-05-01 14:47 44.40956 5.58590 27287 ft 502 kts 104°
2026-05-01 14:47 44.40158 5.63343 27173 ft 501 kts 103°
2026-05-01 14:48 44.38576 5.72762 26689 ft 493 kts 104°
2026-05-01 14:48 44.37795 5.77373 26445 ft 494 kts 104°
2026-05-01 14:48 44.36219 5.86645 25944 ft 487 kts 104°
2026-05-01 14:49 44.34648 5.95826 25464 ft 484 kts 104°
2026-05-01 14:49 44.33077 6.04956 24994 ft 482 kts 104°
2026-05-01 14:50 44.32038 6.10973 24689 ft 480 kts 104°
2026-05-01 14:50 44.29946 6.23017 24076 ft 477 kts 104°
2026-05-01 14:51 44.29166 6.27492 23844 ft 474 kts 104°
2026-05-01 14:51 44.27611 6.36377 23288 ft 466 kts 104°
2026-05-01 14:52 44.26082 6.45065 22748 ft 457 kts 104°
2026-05-01 14:52 44.25322 6.49372 22483 ft 455 kts 104°
2026-05-01 14:52 44.23813 6.57884 21958 ft 450 kts 104°
2026-05-01 14:53 44.23059 6.62123 21710 ft 448 kts 104°
2026-05-01 14:53 44.22311 6.66323 21452 ft 446 kts 104°
2026-05-01 14:53 44.21562 6.70518 21208 ft 444 kts 104°
2026-05-01 14:53 44.20817 6.74677 20964 ft 442 kts 104°
2026-05-01 14:54 44.20071 6.78834 20715 ft 441 kts 104°
2026-05-01 14:54 44.19328 6.82963 20466 ft 439 kts 104°
2026-05-01 14:54 44.18585 6.87081 20237 ft 438 kts 103°
2026-05-01 14:54 44.17853 6.91142 19998 ft 437 kts 103°
2026-05-01 14:55 44.17109 6.95246 19755 ft 435 kts 103°
2026-05-01 14:55 44.16366 6.99329 19527 ft 434 kts 103°
2026-05-01 14:55 44.15629 7.03392 19291 ft 433 kts 103°
2026-05-01 14:55 44.14890 7.07450 19062 ft 431 kts 103°
2026-05-01 14:56 44.14153 7.11485 18829 ft 430 kts 103°
2026-05-01 14:56 44.13414 7.15519 18589 ft 429 kts 103°
2026-05-01 14:56 44.12678 7.19529 18327 ft 427 kts 103°
2026-05-01 14:56 44.11944 7.23525 18057 ft 425 kts 103°
2026-05-01 14:57 44.11212 7.27506 17795 ft 422 kts 103°
2026-05-01 14:57 44.08984 7.34818 17202 ft 409 kts 132°
2026-05-01 14:57 44.06747 7.37092 16891 ft 403 kts 153°
2026-05-01 14:58 44.04122 7.38406 16554 ft 397 kts 162°
2026-05-01 14:58 44.01490 7.39488 16200 ft 390 kts 161°
2026-05-01 14:58 43.98936 7.40692 15870 ft 383 kts 158°
2026-05-01 14:58 43.96494 7.42069 15534 ft 376 kts 155°
2026-05-01 14:59 43.94136 7.43585 15243 ft 368 kts 152°
2026-05-01 14:59 43.91875 7.45157 15009 ft 359 kts 151°
2026-05-01 14:59 43.89685 7.46743 14779 ft 351 kts 150°
2026-05-01 14:59 43.87573 7.48305 14558 ft 343 kts 150°
2026-05-01 15:00 43.83445 7.51390 14122 ft 330 kts 150°
2026-05-01 15:00 43.81448 7.52883 13859 ft 323 kts 150°
2026-05-01 15:00 43.79491 7.54343 13613 ft 317 kts 150°
2026-05-01 15:01 43.77568 7.55777 13371 ft 310 kts 150°
2026-05-01 15:01 43.75682 7.57185 13102 ft 304 kts 149°
2026-05-01 15:01 43.73843 7.58555 12857 ft 297 kts 149°
2026-05-01 15:01 43.72032 7.59902 12615 ft 293 kts 149°
2026-05-01 15:02 43.70246 7.61231 12385 ft 290 kts 149°
2026-05-01 15:02 43.69672 7.61658 12309 ft 290 kts 149°
2026-05-01 15:02 43.66704 7.63863 11941 ft 287 kts 149°
2026-05-01 15:02 43.64950 7.65164 11704 ft 286 kts 149°
2026-05-01 15:03 43.63198 7.66463 11483 ft 285 kts 149°
2026-05-01 15:03 43.61456 7.67755 11265 ft 284 kts 149°
2026-05-01 15:03 43.59736 7.69028 11047 ft 283 kts 149°
2026-05-01 15:03 43.58001 7.70313 10839 ft 283 kts 149°
2026-05-01 15:04 43.56265 7.71597 10611 ft 283 kts 149°
2026-05-01 15:04 43.54526 7.72883 10403 ft 283 kts 149°
2026-05-01 15:04 43.52795 7.74162 10189 ft 283 kts 149°
2026-05-01 15:04 43.51054 7.75446 9943 ft 283 kts 149°
2026-05-01 15:05 43.49317 7.76727 9693 ft 285 kts 149°
2026-05-01 15:05 43.47555 7.77867 9407 ft 284 kts 163°
2026-05-01 15:05 43.45588 7.77928 9176 ft 286 kts 194°
2026-05-01 15:05 43.43827 7.76709 8981 ft 285 kts 222°
2026-05-01 15:06 43.42653 7.74549 8768 ft 282 kts 250°
2026-05-01 15:06 43.42239 7.71939 8571 ft 279 kts 274°
2026-05-01 15:06 43.42375 7.69278 8420 ft 281 kts 278°
2026-05-01 15:06 43.42562 7.66583 8264 ft 285 kts 278°
2026-05-01 15:07 43.42753 7.63863 8092 ft 284 kts 278°
2026-05-01 15:07 43.42940 7.61177 7908 ft 280 kts 278°
2026-05-01 15:07 43.43119 7.58535 7712 ft 275 kts 278°
2026-05-01 15:07 43.43235 7.56811 7636 ft 271 kts 278°
2026-05-01 15:08 43.43404 7.54248 7626 ft 269 kts 278°
2026-05-01 15:08 43.43573 7.51662 7502 ft 273 kts 278°
2026-05-01 15:08 43.43799 7.48183 7356 ft 277 kts 277°
2026-05-01 15:08 43.43967 7.45540 7237 ft 277 kts 277°
2026-05-01 15:09 43.44132 7.42928 7103 ft 271 kts 277°
2026-05-01 15:09 43.44240 7.41201 7010 ft 267 kts 277°
2026-05-01 15:09 43.44397 7.38693 6882 ft 264 kts 277°
2026-05-01 15:09 43.44554 7.36177 6757 ft 263 kts 277°
2026-05-01 15:10 43.44710 7.33678 6635 ft 262 kts 277°
2026-05-01 15:10 43.45017 7.28707 6373 ft 256 kts 277°
2026-05-01 15:10 43.45164 7.26308 6237 ft 246 kts 277°
2026-05-01 15:11 43.45351 7.24021 6077 ft 236 kts 287°
2026-05-01 15:11 43.46529 7.19871 5598 ft 230 kts 297°
2026-05-01 15:11 43.47075 7.17853 5305 ft 228 kts 281°
2026-05-01 15:12 43.46889 7.15733 5146 ft 224 kts 247°
2026-05-01 15:12 43.45572 7.11901 4929 ft 220 kts 252°
2026-05-01 15:12 43.45581 7.09836 4750 ft 223 kts 291°
2026-05-01 15:13 43.46463 7.03433 4503 ft 221 kts 278°
2026-05-01 15:14 43.47654 7.00133 4197 ft 180 kts 336°
2026-05-01 15:14 43.48739 6.99462 4046 ft 169 kts 336°
2026-05-01 15:14 43.50736 6.98622 3905 ft 146 kts 44°
2026-05-01 15:15 43.52015 7.00806 3981 ft 147 kts 58°
2026-05-01 15:15 43.53188 7.02985 3870 ft 139 kts 55°
2026-05-01 15:16 43.54416 7.05042 3707 ft 138 kts 53°
2026-05-01 15:16 43.55671 7.06998 3483 ft 136 kts 52°
2026-05-01 15:17 43.56884 7.09007 3217 ft 137 kts 52°
2026-05-01 15:18 43.58576 7.11415 2966 ft 142 kts 48°
2026-05-01 15:18 43.59177 7.12234 2761 ft 139 kts 47°
2026-05-01 15:19 43.61301 7.15134 1811 ft 145 kts 47°
2026-05-01 15:19 43.62774 7.17149 1132 ft 156 kts 45°
2026-05-01 15:19 43.63556 7.18193 805 ft 157 kts 45°
2026-05-01 15:20 43.65079 7.20282 120 ft 151 kts 46°
2026-05-01 15:20 43.65775 7.21254 28 ft 133 kts 45°
2026-05-01 15:20 43.66339 7.22017 30 ft 88 kts 44°
2026-05-01 15:21 43.66636 7.22409 25 ft 26 kts 44°
2026-05-01 15:21 43.66738 7.22484 24 ft 11 kts 350°
2026-05-01 15:21 43.66785 7.22440 25 ft 8 kts 316°
2026-05-01 15:21 43.66817 7.22374 27 ft 8 kts 282°
2026-05-01 15:22 43.66735 7.22220 24 ft 14 kts 225°
2026-05-01 15:22 43.66664 7.22122 28 ft 14 kts 224°
2026-05-01 15:22 43.66592 7.22024 27 ft 14 kts 225°
2026-05-01 15:23 43.66521 7.21926 26 ft 14 kts 225°
2026-05-01 15:23 43.66451 7.21827 27 ft 14 kts 225°
2026-05-01 15:23 43.66379 7.21730 26 ft 14 kts 224°
2026-05-01 15:23 43.66326 7.21635 25 ft 12 kts 266°
2026-05-01 15:24 43.66368 7.21532 28 ft 12 kts 289°
2026-05-01 15:24 43.66362 7.21414 24 ft 12 kts 259°
2026-05-01 15:24 43.66348 7.21296 28 ft 12 kts 262°
2026-05-01 15:24 43.66379 7.21232 27 ft 8 kts 354°
2026-05-01 15:25 43.66413 7.21225 28 ft 0 kts 351°